User: anonymous   Login
Location: ?????
(32.7281°N, 34.9563°E)
Time: 16:24:09
(UTC+00:00)
Language:

Cosmos 1709 Rocket - Orbit

View from above orbital plane
View from above orbital plane
View from above satellite
View from above satellite

Ground track
Ground track

The orbit data is extracted from the following two-line orbital elements,

1 16369U 85116B   21017.19414384  .00000058  00000-0  42983-4 0  9994
2 16369  82.9374  93.9751 0037760  92.8877 323.1853 13.76864354762241
Epoch (UTC): 17 January 2021 04:39:34
Eccentricity: 0.0037760
inclination: 82.9374°
perigee height: 947 km
apogee height: 1003 km
right ascension of ascending node: 93.9751°
argument of perigee: 92.8877°
revolutions per day: 13.76864354
mean anomaly at epoch: 323.1853°
orbit number at epoch: 76224

The dashed part of the orbit path shows where the satellite is in the earth's shadow,  

DLR